VCP115 TFFS-TFFA

Flight info

Callsign VCP115
Flight time 0h 22m
Altitude 9000
Route PPR
Aircraft DHC6/L-SDFGR/C

Departure

Time 2026-04-16 21:24
Airport Terre-de-Haut Airport (TFFS)

Arrival

Time 2026-04-16 21:46
Airport La Désirade Airport (TFFA)
Time Latitude Longitude Altitude Speed Heading
2026-04-16 21:07 15.86521 -61.57942 12 ft 0 kts 344°
2026-04-16 21:20 15.86523 -61.57945 11 ft 1 kts 303°
2026-04-16 21:21 15.86523 -61.57950 12 ft 0 kts 253°
2026-04-16 21:21 15.86524 -61.57947 11 ft 4 kts 253°
2026-04-16 21:21 15.86522 -61.57947 11 ft 2 kts 250°
2026-04-16 21:21 15.86516 -61.57945 12 ft 5 kts 229°
2026-04-16 21:22 15.86494 -61.57977 14 ft 8 kts 181°
2026-04-16 21:22 15.86456 -61.58023 13 ft 12 kts 255°
2026-04-16 21:22 15.86427 -61.58128 12 ft 17 kts 254°
2026-04-16 21:22 15.86394 -61.58246 13 ft 14 kts 252°
2026-04-16 21:23 15.86387 -61.58277 14 ft 1 kts 71°
2026-04-16 21:23 15.86389 -61.58271 13 ft 9 kts 74°
2026-04-16 21:23 15.86450 -61.58044 13 ft 52 kts 75°
2026-04-16 21:23 15.86590 -61.57625 97 ft 67 kts 70°
2026-04-16 21:24 15.86805 -61.57114 215 ft 83 kts 65°
2026-04-16 21:24 15.87212 -61.56632 510 ft 92 kts 35°
2026-04-16 21:24 15.87910 -61.56566 665 ft 115 kts
2026-04-16 21:24 15.88764 -61.56622 646 ft 130 kts
2026-04-16 21:25 15.89679 -61.56698 674 ft 132 kts
2026-04-16 21:25 15.90563 -61.57038 713 ft 144 kts 335°
2026-04-16 21:25 15.91452 -61.57460 737 ft 137 kts 357°
2026-04-16 21:25 15.92388 -61.57436 761 ft 134 kts 10°
2026-04-16 21:26 15.93330 -61.57360 823 ft 141 kts 11°
2026-04-16 21:26 15.94340 -61.57266 916 ft 149 kts 11°
2026-04-16 21:26 15.95374 -61.57164 1022 ft 148 kts 12°
2026-04-16 21:26 15.96405 -61.57061 1108 ft 150 kts 11°
2026-04-16 21:27 15.97438 -61.56956 1186 ft 151 kts
2026-04-16 21:27 15.98469 -61.56853 1273 ft 149 kts
2026-04-16 21:27 15.99502 -61.56750 1344 ft 151 kts 11°
2026-04-16 21:27 16.00547 -61.56642 1417 ft 152 kts 11°
2026-04-16 21:28 16.01613 -61.56531 1479 ft 156 kts 11°
2026-04-16 21:28 16.02710 -61.56423 1554 ft 159 kts 11°
2026-04-16 21:28 16.03775 -61.56320 1850 ft 143 kts 12°
2026-04-16 21:28 16.04693 -61.56232 2322 ft 126 kts 13°
2026-04-16 21:29 16.05584 -61.56138 2538 ft 132 kts 13°
2026-04-16 21:29 16.06505 -61.56044 2797 ft 133 kts 13°
2026-04-16 21:29 16.07412 -61.55953 3071 ft 129 kts 12°
2026-04-16 21:29 16.08303 -61.55864 3342 ft 129 kts 12°
2026-04-16 21:30 16.09200 -61.55774 3620 ft 129 kts 12°
2026-04-16 21:30 16.10096 -61.55684 3920 ft 129 kts 14°
2026-04-16 21:30 16.10985 -61.55596 4233 ft 127 kts 14°
2026-04-16 21:30 16.11861 -61.55523 4547 ft 125 kts 14°
2026-04-16 21:31 16.12718 -61.55421 4850 ft 126 kts 14°
2026-04-16 21:31 16.13579 -61.55333 5148 ft 123 kts 14°
2026-04-16 21:31 16.14428 -61.55245 5449 ft 123 kts 16°
2026-04-16 21:31 16.15288 -61.55156 5750 ft 125 kts 11°
2026-04-16 21:32 16.16178 -61.55093 5965 ft 134 kts 11°
2026-04-16 21:32 16.17166 -61.54974 5993 ft 150 kts 13°
2026-04-16 21:32 16.18222 -61.54861 6000 ft 155 kts 12°
2026-04-16 21:32 16.19304 -61.54749 5997 ft 157 kts 12°
2026-04-16 21:33 16.20392 -61.54639 5995 ft 157 kts 10°
2026-04-16 21:33 16.21481 -61.54528 5992 ft 158 kts 12°
2026-04-16 21:33 16.22561 -61.54418 5989 ft 158 kts 12°
2026-04-16 21:33 16.23655 -61.54306 5986 ft 159 kts
2026-04-16 21:34 16.24757 -61.54197 5985 ft 159 kts 10°
2026-04-16 21:34 16.25805 -61.53953 5965 ft 150 kts 36°
2026-04-16 21:34 16.26478 -61.53170 5974 ft 145 kts 68°
2026-04-16 21:34 16.26657 -61.52158 5981 ft 142 kts 89°
2026-04-16 21:35 16.26721 -61.51126 5982 ft 143 kts 87°
2026-04-16 21:35 16.26799 -61.50092 5981 ft 143 kts 86°
2026-04-16 21:35 16.26872 -61.49063 5979 ft 141 kts 87°
2026-04-16 21:35 16.26944 -61.48041 5977 ft 142 kts 86°
2026-04-16 21:36 16.27017 -61.47013 5972 ft 144 kts 86°
2026-04-16 21:36 16.27090 -61.45970 5974 ft 144 kts 86°
2026-04-16 21:36 16.27163 -61.44933 5968 ft 143 kts 86°
2026-04-16 21:36 16.27234 -61.43908 5975 ft 142 kts 87°
2026-04-16 21:37 16.27308 -61.42880 5976 ft 143 kts 86°
2026-04-16 21:37 16.27379 -61.41859 5976 ft 144 kts 86°
2026-04-16 21:37 16.27452 -61.40817 5972 ft 145 kts 86°
2026-04-16 21:37 16.27525 -61.39780 5972 ft 144 kts 86°
2026-04-16 21:38 16.27598 -61.38745 5977 ft 143 kts 87°
2026-04-16 21:38 16.27669 -61.37707 5977 ft 144 kts 86°
2026-04-16 21:38 16.27743 -61.36658 5974 ft 145 kts 86°
2026-04-16 21:38 16.27816 -61.35612 5978 ft 145 kts 86°
2026-04-16 21:39 16.27890 -61.34566 5979 ft 144 kts 87°
2026-04-16 21:39 16.27962 -61.33535 5982 ft 144 kts 86°
2026-04-16 21:39 16.28033 -61.32494 5975 ft 144 kts 86°
2026-04-16 21:39 16.28106 -61.31458 5981 ft 143 kts 86°
2026-04-16 21:40 16.28179 -61.30416 5965 ft 145 kts 86°
2026-04-16 21:40 16.28251 -61.29371 5970 ft 144 kts 86°
2026-04-16 21:40 16.28324 -61.28331 5968 ft 144 kts 86°
2026-04-16 21:40 16.28396 -61.27293 5975 ft 143 kts 86°
2026-04-16 21:41 16.28468 -61.26253 5972 ft 144 kts 85°
2026-04-16 21:41 16.28540 -61.25210 5963 ft 145 kts 85°
2026-04-16 21:41 16.28612 -61.24170 5966 ft 143 kts 86°
2026-04-16 21:41 16.28683 -61.23143 5965 ft 142 kts 85°
2026-04-16 21:42 16.28754 -61.22130 5870 ft 135 kts 85°
2026-04-16 21:42 16.28818 -61.21151 5398 ft 138 kts 85°
2026-04-16 21:42 16.28889 -61.20128 4755 ft 147 kts 85°
2026-04-16 21:42 16.28961 -61.19061 4089 ft 151 kts 85°
2026-04-16 21:43 16.29050 -61.17984 3579 ft 146 kts 83°
2026-04-16 21:43 16.29208 -61.16967 3152 ft 137 kts 81°
2026-04-16 21:43 16.29345 -61.16023 2749 ft 130 kts 84°
2026-04-16 21:43 16.29397 -61.15081 2309 ft 129 kts 88°
2026-04-16 21:44 16.29385 -61.14165 1910 ft 126 kts 92°
2026-04-16 21:44 16.29349 -61.13293 1645 ft 113 kts 87°
2026-04-16 21:44 16.29594 -61.12523 1357 ft 110 kts 56°
2026-04-16 21:44 16.29990 -61.11978 1027 ft 83 kts 74°
2026-04-16 21:45 16.29942 -61.11471 759 ft 64 kts 115°
2026-04-16 21:45 16.29650 -61.11098 577 ft 76 kts 125°
2026-04-16 21:45 16.29354 -61.10631 522 ft 79 kts 111°
2026-04-16 21:45 16.29249 -61.10086 409 ft 75 kts 86°
2026-04-16 21:46 16.29323 -61.09556 240 ft 71 kts 70°
2026-04-16 21:46 16.29479 -61.09105 116 ft 65 kts 75°
2026-04-16 21:46 16.29635 -61.08649 22 ft 63 kts 73°
2026-04-16 21:46 16.29697 -61.08461 14 ft 5 kts 78°
2026-04-16 21:47 16.29701 -61.08452 14 ft 6 kts 244°
2026-04-16 21:47 16.29676 -61.08521 15 ft 13 kts 250°
2026-04-16 21:47 16.29644 -61.08618 16 ft 13 kts 253°
2026-04-16 21:47 16.29655 -61.08678 17 ft 8 kts 340°
2026-04-16 21:48 16.29677 -61.08699 16 ft 3 kts 47°
2026-04-16 21:48 16.29677 -61.08697 16 ft 0 kts 82°